| time (UTC) | temp F | wind direction | speed MPH | gust MPH | rain 1hr in | rain 24hr in | rain mn in | humidity % | barometer mb |
| 20260903165526 | 86 | 103 | 7.0 | 14.0 | 0.00 | 0.00 | 0.00 | 83 | 1011.5 |
| 20260903164732 | 86 | 104 | 7.0 | 12.0 | 0.00 | 0.00 | 0.00 | 83 | 1011.5 |
| 20260903164527 | 86 | 59 | 7.0 | 13.0 | 0.00 | 0.00 | 0.00 | 83 | 1011.5 |
| 20260903164522 | 86 | 69 | 6.0 | 10.0 | 0.00 | 0.00 | 0.00 | 83 | 1011.4 |
| 20260903164028 | 87 | 82 | 7.0 | 15.0 | 0.00 | 0.00 | 0.00 | 83 | 1011.5 |
| 20260903163230 | 89 | 108 | 4.0 | 15.0 | 0.00 | 0.00 | 0.00 | 81 | 1011.5 |
| 20260903163005 | 89 | 101 | 4.0 | 14.0 | 0.00 | 0.00 | 0.00 | 79 | 1011.5 |
| 20260903162730 | 90 | 92 | 1.0 | 8.0 | 0.00 | 0.00 | 0.00 | 78 | 1011.6 |
| 20260903162524 | 90 | 87 | 2.0 | 8.0 | 0.00 | 0.00 | 0.00 | 76 | 1011.6 |
| 20260903161730 | 89 | 269 | 3.0 | 8.0 | 0.00 | 0.00 | 0.00 | 79 | 1011.6 |
| 20260903161503 | 88 | 113 | 2.0 | 8.0 | 0.00 | 0.00 | 0.00 | 79 | 1011.5 |
| 20260903161230 | 89 | 97 | 3.0 | 8.0 | 0.00 | 0.00 | 0.00 | 78 | 1011.6 |
| 20260903160731 | 89 | 149 | 2.0 | 8.0 | 0.00 | 0.00 | 0.00 | 79 | 1011.6 |
| 20260903160523 | 90 | 111 | 1.0 | 8.0 | 0.00 | 0.00 | 0.00 | 77 | 1011.6 |
| 20260903160043 | 90 | 149 | 0.0 | 4.0 | 0.00 | 0.00 | 0.00 | 79 | 1011.8 |
| 20260903155731 | 89 | 219 | 1.0 | 5.0 | 0.00 | 0.00 | 0.00 | 78 | 1011.9 |
| 20260903155230 | 89 | 135 | 2.0 | 7.0 | 0.00 | 0.00 | 0.00 | 81 | 1011.9 |
| 20260903154730 | 88 | 119 | 2.0 | 7.0 | 0.00 | 0.00 | 0.00 | 79 | 1011.9 |
| 20260903154525 | 89 | 119 | 1.0 | 4.0 | 0.00 | 0.00 | 0.00 | 78 | 1012.0 |
| 20260903154521 | 88 | 114 | 3.0 | 5.0 | 0.00 | 0.00 | 0.00 | 80 | 1011.9 |
| 20260903153730 | 89 | 207 | 2.0 | 4.0 | 0.00 | 0.00 | 0.00 | 80 | 1012.0 |
| 20260903153525 | 88 | 123 | 2.0 | 7.0 | 0.00 | 0.00 | 0.00 | 80 | 1012.0 |
| 20260903153005 | 88 | 137 | 2.0 | 7.0 | 0.00 | 0.00 | 0.00 | 79 | 1012.0 |
| 20260903152728 | 89 | 133 | 2.0 | 7.0 | 0.00 | 0.00 | 0.00 | 79 | 1012.1 |
| 20260903152228 | 89 | 166 | 1.0 | 5.0 | 0.00 | 0.00 | 0.00 | 79 | 1012.1 |
| 20260903151733 | 89 | 183 | 1.0 | 5.0 | 0.00 | 0.00 | 0.00 | 79 | 1012.1 |
| 20260903151502 | 89 | 226 | 1.0 | 5.0 | 0.00 | 0.00 | 0.00 | 78 | 1011.9 |
| 20260903151231 | 89 | 254 | 2.0 | 5.0 | 0.00 | 0.00 | 0.00 | 79 | 1012.0 |
| 20260903150731 | 89 | 161 | 2.0 | 7.0 | 0.00 | 0.00 | 0.00 | 79 | 1012.0 |
| 20260903150229 | 89 | 107 | 2.0 | 7.0 | 0.00 | 0.00 | 0.00 | 78 | 1012.0 |
| 20260903150109 | 89 | 128 | 2.0 | 6.0 | 0.00 | 0.00 | 0.00 | 78 | 1011.9 |
| 20260903145728 | 90 | 144 | 2.0 | 6.0 | 0.00 | 0.00 | 0.00 | 76 | 1012.0 |
| 20260903145229 | 91 | 176 | 2.0 | 6.0 | 0.00 | 0.00 | 0.00 | 78 | 1012.0 |
| 20260903144728 | 91 | 247 | 2.0 | 7.0 | 0.00 | 0.00 | 0.00 | 78 | 1012.0 |
| 20260903144539 | 90 | 148 | 2.0 | 7.0 | 0.00 | 0.00 | 0.00 | 77 | 1011.8 |
| 20260903144228 | 90 | 227 | 2.0 | 7.0 | 0.00 | 0.00 | 0.00 | 78 | 1011.9 |
| 20260903143727 | 89 | 274 | 2.0 | 10.0 | 0.00 | 0.00 | 0.00 | 80 | 1011.9 |
| 20260903143225 | 88 | 219 | 2.0 | 10.0 | 0.00 | 0.00 | 0.00 | 80 | 1011.9 |
| 20260903143036 | 88 | 140 | 2.0 | 10.0 | 0.00 | 0.00 | 0.00 | 80 | 1011.5 |
| 20260903142725 | 88 | 234 | 1.0 | 5.0 | 0.00 | 0.00 | 0.00 | 80 | 1011.7 |
| 20260903142226 | 88 | 229 | 1.0 | 3.0 | 0.00 | 0.00 | 0.00 | 82 | 1011.7 |
| 20260903142009 | 87 | 188 | 1.0 | 6.0 | 0.00 | 0.00 | 0.00 | 83 | 1011.7 |
| 20260903141511 | 86 | 209 | 1.0 | 6.0 | 0.00 | 0.00 | 0.00 | 82 | 1011.4 |
| 20260903141226 | 87 | 157 | 1.0 | 6.0 | 0.00 | 0.00 | 0.00 | 83 | 1011.5 |
| 20260903140724 | 86 | 126 | 2.0 | 5.0 | 0.00 | 0.00 | 0.00 | 83 | 1011.5 |
| 20260903140224 | 86 | 234 | 2.0 | 5.0 | 0.00 | 0.00 | 0.00 | 83 | 1011.5 |
| 20260903140015 | 85 | 227 | 2.0 | 5.0 | 0.00 | 0.00 | 0.00 | 83 | 1011.4 |
| 20260903135724 | 85 | 193 | 2.0 | 6.0 | 0.00 | 0.00 | 0.00 | 83 | 1011.5 |
| 20260903135223 | 85 | 232 | 1.0 | 6.0 | 0.00 | 0.00 | 0.00 | 84 | 1011.5 |
| 20260903134720 | 84 | 213 | 1.0 | 7.0 | 0.00 | 0.00 | 0.00 | 84 | 1011.5 |
| 20260903134508 | 83 | 155 | 0.0 | 7.0 | 0.00 | 0.00 | 0.00 | 85 | 1011.3 |
| 20260903134220 | 84 | 213 | 1.0 | 7.0 | 0.00 | 0.00 | 0.00 | 85 | 1011.5 |
| 20260903133719 | 83 | 227 | 1.0 | 2.0 | 0.00 | 0.00 | 0.00 | 86 | 1011.5 |
| 20260903133219 | 82 | 215 | 0.0 | 2.0 | 0.00 | 0.00 | 0.00 | 87 | 1011.5 |
| 20260903133005 | 82 | 148 | 0.0 | 2.0 | 0.00 | 0.00 | 0.00 | 87 | 1011.4 |
| 20260903132719 | 82 | 136 | 0.0 | 2.0 | 0.00 | 0.00 | 0.00 | 88 | 1011.5 |
| 20260903132220 | 81 | 136 | 0.0 | 2.0 | 0.00 | 0.00 | 0.00 | 88 | 1011.5 |
| 20260903131717 | 81 | 215 | 0.0 | 1.0 | 0.00 | 0.00 | 0.00 | 88 | 1011.5 |
| 20260903131503 | 80 | 215 | 0.0 | 1.0 | 0.00 | 0.00 | 0.00 | 89 | 1011.4 |
| 20260903131217 | 80 | 210 | 0.0 | 2.0 | 0.00 | 0.00 | 0.00 | 89 | 1011.5 |
| 20260903130707 | 80 | 126 | 0.0 | 2.0 | 0.00 | 0.00 | 0.00 | 90 | 1011.5 |
| 20260903130208 | 80 | 121 | 0.0 | 1.0 | 0.00 | 0.00 | 0.00 | 90 | 1011.5 |
| 20260903130037 | 79 | 219 | 0.0 | 1.0 | 0.00 | 0.00 | 0.00 | 90 | 1011.2 |
| 20260903125707 | 79 | 219 | 0.0 | 1.0 | 0.00 | 0.00 | 0.00 | 90 | 1011.4 |
| 20260903125206 | 79 | 232 | 0.0 | 1.0 | 0.00 | 0.00 | 0.00 | 91 | 1011.4 |
| 20260903124707 | 79 | 271 | 0.0 | 1.0 | 0.00 | 0.00 | 0.00 | 91 | 1011.4 |
| 20260903124535 | 79 | 270 | 0.0 | 1.0 | 0.00 | 0.00 | 0.00 | 91 | 1011.4 |
| 20260903124207 | 79 | 271 | 0.0 | 1.0 | 0.00 | 0.00 | 0.00 | 92 | 1011.5 |
| 20260903123954 | 79 | 271 | 0.0 | 1.0 | 0.00 | 0.00 | 0.00 | 92 | 1011.5 |
| 20260903123318 | 78 | 221 | 0.0 | 2.0 | 0.00 | 0.00 | 0.00 | 92 | 1011.5 |
| 20260903123258 | 78 | 271 | 0.0 | 1.0 | 0.00 | 0.00 | 0.00 | 92 | 1011.5 |
| 20260903122450 | 78 | 221 | 0.0 | 2.0 | 0.00 | 0.00 | 0.00 | 92 | 1011.5 |
| 20260903121704 | 78 | 222 | 0.0 | 1.0 | 0.00 | 0.00 | 0.00 | 93 | 1011.5 |
| 20260903121510 | 77 | 222 | 0.0 | 1.0 | 0.00 | 0.00 | 0.00 | 93 | 1011.3 |
| 20260903121452 | 78 | 222 | 0.0 | 0.0 | 0.00 | 0.00 | 0.00 | 93 | 1011.4 |
| 20260903120704 | 78 | 222 | 0.0 | 0.0 | 0.00 | 0.00 | 0.00 | 93 | 1011.4 |
| 20260903120204 | 78 | 222 | 0.0 | 0.0 | 0.00 | 0.00 | 0.00 | 93 | 1011.4 |
| 20260903120004 | 77 | 222 | 0.0 | 0.0 | 0.00 | 0.00 | 0.00 | 93 | 1010.9 |
| 20260903115704 | 78 | 222 | 0.0 | 0.0 | 0.00 | 0.00 | 0.00 | 93 | 1011.0 |
| 20260903115204 | 77 | 222 | 0.0 | 0.0 | 0.00 | 0.00 | 0.00 | 93 | 1011.0 |
| 20260903114701 | 77 | 222 | 0.0 | 0.0 | 0.00 | 0.00 | 0.00 | 93 | 1011.0 |
| 20260903114503 | 77 | 222 | 0.0 | 0.0 | 0.00 | 0.00 | 0.00 | 93 | 1010.8 |
| 20260903114446 | 77 | 222 | 0.0 | 0.0 | 0.00 | 0.00 | 0.00 | 93 | 1011.0 |
| 20260903113701 | 77 | 222 | 0.0 | 0.0 | 0.00 | 0.00 | 0.00 | 93 | 1011.0 |
| 20260903113203 | 77 | 222 | 0.0 | 0.0 | 0.00 | 0.00 | 0.00 | 93 | 1011.0 |
| 20260903113004 | 76 | 222 | 0.0 | 0.0 | 0.00 | 0.00 | 0.00 | 93 | 1010.4 |
| 20260903112702 | 77 | 222 | 0.0 | 0.0 | 0.00 | 0.00 | 0.00 | 93 | 1010.5 |
| 20260903112446 | 77 | 222 | 0.0 | 0.0 | 0.00 | 0.00 | 0.00 | 93 | 1010.5 |
| 20260903111702 | 77 | 222 | 0.0 | 0.0 | 0.00 | 0.00 | 0.00 | 93 | 1010.5 |
| 20260903111502 | 76 | 222 | 0.0 | 0.0 | 0.00 | 0.00 | 0.00 | 93 | 1010.3 |
| 20260903111200 | 77 | 222 | 0.0 | 0.0 | 0.00 | 0.00 | 0.00 | 93 | 1010.4 |
| 20260903110702 | 77 | 222 | 0.0 | 0.0 | 0.00 | 0.00 | 0.00 | 93 | 1010.4 |
| 20260903110202 | 77 | 221 | 0.0 | 0.0 | 0.00 | 0.00 | 0.00 | 93 | 1010.4 |
| 20260903110003 | 76 | 222 | 0.0 | 0.0 | 0.00 | 0.02 | 0.00 | 93 | 1009.9 |
| 20260903105701 | 77 | 221 | 0.0 | 0.0 | 0.00 | 0.00 | 0.00 | 93 | 1010.0 |
| 20260903105202 | 77 | 222 | 0.0 | 0.0 | 0.00 | 0.00 | 0.00 | 92 | 1010.0 |
| 20260903104701 | 77 | 221 | 0.0 | 0.0 | 0.00 | 0.01 | 0.00 | 93 | 1010.0 |
| 20260903104501 | 76 | 222 | 0.0 | 0.0 | 0.00 | 0.02 | 0.00 | 92 | 1009.8 |
| 20260903104201 | 77 | 222 | 0.0 | 0.0 | 0.00 | 0.01 | 0.00 | 92 | 1009.9 |
| 20260903103703 | 77 | 222 | 0.0 | 0.0 | 0.00 | 0.02 | 0.00 | 92 | 1009.9 |
| 20260903103201 | 77 | 222 | 0.0 | 0.0 | 0.00 | 0.02 | 0.00 | 92 | 1009.9 |
| 20260903103003 | 76 | 222 | 0.0 | 0.0 | 0.00 | 0.02 | 0.00 | 92 | 1009.8 |
| 20260903102946 | 77 | 222 | 0.0 | 0.0 | 0.00 | 0.02 | 0.00 | 92 | 1009.9 |
| 20260903102202 | 77 | 222 | 0.0 | 0.0 | 0.00 | 0.02 | 0.00 | 92 | 1009.9 |
| 20260903101700 | 77 | 222 | 0.0 | 0.0 | 0.00 | 0.02 | 0.00 | 92 | 1009.9 |
| 20260903101501 | 76 | 222 | 0.0 | 0.0 | 0.00 | 0.02 | 0.00 | 92 | 1009.8 |
| 20260903101202 | 77 | 222 | 0.0 | 0.0 | 0.00 | 0.02 | 0.00 | 92 | 1009.9 |
| 20260903100701 | 77 | 222 | 0.0 | 1.0 | 0.00 | 0.02 | 0.00 | 92 | 1009.9 |
| 20260903100202 | 77 | 222 | 0.0 | 1.0 | 0.00 | 0.02 | 0.00 | 92 | 1009.9 |
| 20260903100004 | 77 | 222 | 0.0 | 1.0 | 0.00 | 0.02 | 0.00 | 92 | 1009.8 |
| 20260903095702 | 77 | 222 | 0.0 | 1.0 | 0.00 | 0.02 | 0.00 | 92 | 1009.9 |
| 20260903095202 | 77 | 222 | 0.0 | 1.0 | 0.00 | 0.02 | 0.00 | 92 | 1009.9 |
| 20260903094702 | 77 | 222 | 0.0 | 0.0 | 0.00 | 0.02 | 0.00 | 92 | 1009.9 |
| 20260903094602 | 77 | 222 | 0.0 | 0.0 | 0.00 | 0.02 | 0.00 | 92 | 1009.6 |
| 20260903094201 | 77 | 222 | 0.0 | 0.0 | 0.00 | 0.02 | 0.00 | 92 | 1009.7 |
| 20260903093703 | 77 | 222 | 0.0 | 0.0 | 0.00 | 0.02 | 0.00 | 92 | 1009.7 |
| 20260903093454 | 77 | 222 | 0.0 | 0.0 | 0.00 | 0.02 | 0.00 | 92 | 1009.7 |
| 20260903093108 | 77 | 222 | 0.0 | 0.0 | 0.00 | 0.02 | 0.00 | 92 | 1009.6 |
| 20260903092702 | 77 | 222 | 0.0 | 0.0 | 0.00 | 0.02 | 0.00 | 92 | 1009.7 |
| 20260903092203 | 77 | 222 | 0.0 | 0.0 | 0.00 | 0.02 | 0.00 | 92 | 1009.7 |
| 20260903091702 | 77 | 221 | 0.0 | 0.0 | 0.00 | 0.02 | 0.00 | 92 | 1009.7 |
| 20260903091534 | 77 | 222 | 0.0 | 0.0 | 0.00 | 0.02 | 0.00 | 92 | 1009.5 |
| 20260903091203 | 78 | 222 | 0.0 | 0.0 | 0.00 | 0.02 | 0.00 | 92 | 1009.6 |
| 20260903090704 | 78 | 221 | 0.0 | 0.0 | 0.00 | 0.02 | 0.00 | 92 | 1009.6 |
| 20260903090203 | 78 | 222 | 0.0 | 1.0 | 0.00 | 0.02 | 0.00 | 92 | 1009.6 |
| 20260903090037 | 77 | 222 | 0.0 | 1.0 | 0.00 | 0.02 | 0.00 | 92 | 1009.4 |
| 20260903085703 | 78 | 222 | 0.0 | 3.0 | 0.00 | 0.02 | 0.00 | 92 | 1009.5 |
| 20260903085203 | 78 | 222 | 0.0 | 3.0 | 0.00 | 0.02 | 0.00 | 92 | 1009.5 |
| 20260903084703 | 78 | 232 | 0.0 | 2.0 | 0.00 | 0.02 | 0.00 | 92 | 1009.5 |
| 20260903084530 | 77 | 221 | 0.0 | 1.0 | 0.00 | 0.02 | 0.00 | 92 | 1009.5 |
| 20260903084202 | 78 | 215 | 0.0 | 1.0 | 0.00 | 0.02 | 0.00 | 91 | 1009.6 |
| 20260903083702 | 78 | 215 | 0.0 | 1.0 | 0.00 | 0.02 | 0.00 | 91 | 1009.6 |
| 20260903083202 | 78 | 215 | 0.0 | 1.0 | 0.00 | 0.02 | 0.00 | 91 | 1009.6 |
| 20260903083030 | 78 | 215 | 0.0 | 0.0 | 0.00 | 0.02 | 0.00 | 91 | 1009.3 |
| 20260903082703 | 78 | 215 | 0.0 | 0.0 | 0.00 | 0.02 | 0.00 | 91 | 1009.4 |
| 20260903082203 | 78 | 215 | 0.0 | 1.0 | 0.00 | 0.02 | 0.00 | 91 | 1009.4 |
| 20260903081953 | 78 | 215 | 0.0 | 4.0 | 0.00 | 0.02 | 0.00 | 91 | 1009.4 |
| 20260903081510 | 78 | 215 | 0.0 | 4.0 | 0.00 | 0.02 | 0.00 | 91 | 1009.4 |
| 20260903081203 | 78 | 219 | 1.0 | 4.0 | 0.00 | 0.02 | 0.00 | 91 | 1009.5 |
| 20260903080702 | 79 | 208 | 1.0 | 2.0 | 0.00 | 0.02 | 0.00 | 91 | 1009.5 |
| 20260903080202 | 79 | 221 | 1.0 | 3.0 | 0.00 | 0.02 | 0.00 | 92 | 1009.5 |
| 20260903080004 | 78 | 220 | 0.0 | 3.0 | 0.00 | 0.02 | 0.00 | 92 | 1009.3 |
| 20260903075702 | 79 | 213 | 0.0 | 3.0 | 0.00 | 0.02 | 0.00 | 91 | 1009.4 |
| 20260903075203 | 79 | 227 | 0.0 | 0.0 | 0.00 | 0.02 | 0.00 | 91 | 1009.4 |
| 20260903074702 | 79 | 227 | 0.0 | 0.0 | 0.00 | 0.02 | 0.00 | 91 | 1009.4 |
| 20260903074502 | 78 | 227 | 0.0 | 0.0 | 0.00 | 0.02 | 0.00 | 91 | 1009.4 |
| 20260903074202 | 79 | 222 | 0.0 | 2.0 | 0.00 | 0.02 | 0.00 | 91 | 1009.6 |
| 20260903073704 | 79 | 225 | 0.0 | 3.0 | 0.00 | 0.02 | 0.00 | 91 | 1009.6 |
| 20260903073201 | 79 | 190 | 0.0 | 3.0 | 0.00 | 0.02 | 0.00 | 91 | 1009.6 |
| 20260903073058 | 79 | 158 | 0.0 | 3.0 | 0.00 | 0.02 | 0.00 | 91 | 1009.4 |
| 20260903072701 | 79 | 222 | 0.0 | 3.0 | 0.00 | 0.02 | 0.00 | 91 | 1009.5 |
| 20260903072202 | 80 | 130 | 0.0 | 3.0 | 0.00 | 0.02 | 0.00 | 91 | 1009.5 |
| 20260903071701 | 80 | 165 | 0.0 | 3.0 | 0.00 | 0.02 | 0.00 | 91 | 1009.5 |
| 20260903071534 | 79 | 210 | 0.0 | 3.0 | 0.00 | 0.02 | 0.00 | 91 | 1009.4 |
| 20260903071200 | 80 | 217 | 0.0 | 1.0 | 0.00 | 0.02 | 0.00 | 92 | 1009.5 |
| 20260903070702 | 80 | 209 | 0.0 | 1.0 | 0.00 | 0.02 | 0.00 | 92 | 1009.5 |
| 20260903070202 | 80 | 150 | 0.0 | 1.0 | 0.00 | 0.02 | 0.00 | 92 | 1009.5 |
| 20260903070052 | 80 | 150 | 0.0 | 1.0 | 0.00 | 0.02 | 0.00 | 92 | 1009.6 |
| 20260903065702 | 80 | 128 | 1.0 | 3.0 | 0.00 | 0.02 | 0.00 | 92 | 1009.7 |
| 20260903065202 | 80 | 123 | 1.0 | 3.0 | 0.00 | 0.02 | 0.00 | 92 | 1009.7 |
| 20260903064700 | 80 | 103 | 0.0 | 3.0 | 0.00 | 0.02 | 0.00 | 92 | 1009.7 |
| 20260903064530 | 80 | 123 | 0.0 | 0.0 | 0.00 | 0.02 | 0.00 | 92 | 1009.4 |
| 20260903064200 | 80 | 110 | 0.0 | 0.0 | 0.00 | 0.02 | 0.00 | 92 | 1009.6 |
| 20260903063705 | 80 | 115 | 0.0 | 0.0 | 0.00 | 0.02 | 0.00 | 92 | 1009.6 |
| 20260903063204 | 80 | 95 | 0.0 | 0.0 | 0.00 | 0.02 | 0.00 | 92 | 1009.6 |
| 20260903063034 | 79 | 95 | 0.0 | 0.0 | 0.00 | 0.02 | 0.00 | 92 | 1009.8 |
| 20260903062703 | 80 | 95 | 0.0 | 0.0 | 0.00 | 0.02 | 0.00 | 92 | 1009.9 |
| 20260903062201 | 80 | 95 | 0.0 | 0.0 | 0.00 | 0.02 | 0.00 | 92 | 1009.9 |
| 20260903061702 | 80 | 92 | 0.0 | 0.0 | 0.00 | 0.02 | 0.00 | 92 | 1009.9 |
| 20260903061505 | 79 | 92 | 0.0 | 0.0 | 0.00 | 0.02 | 0.00 | 92 | 1009.8 |
| 20260903061203 | 80 | 92 | 0.0 | 0.0 | 0.00 | 0.02 | 0.00 | 92 | 1009.9 |
| 20260903060702 | 80 | 92 | 0.0 | 0.0 | 0.00 | 0.02 | 0.00 | 92 | 1009.9 |
| 20260903060446 | 80 | 92 | 0.0 | 0.0 | 0.00 | 0.02 | 0.00 | 92 | 1009.9 |
| 20260903060010 | 79 | 92 | 0.0 | 0.0 | 0.00 | 0.02 | 0.00 | 92 | 1010.2 |
| 20260903055702 | 80 | 92 | 0.0 | 0.0 | 0.00 | 0.02 | 0.00 | 92 | 1010.4 |
| 20260903055444 | 80 | 92 | 0.0 | 0.0 | 0.00 | 0.02 | 0.00 | 92 | 1010.4 |
| 20260903054702 | 80 | 110 | 0.0 | 0.0 | 0.00 | 0.02 | 0.00 | 92 | 1010.4 |
| 20260903054504 | 79 | 110 | 0.0 | 0.0 | 0.00 | 0.02 | 0.00 | 92 | 1010.4 |
| 20260903054201 | 80 | 110 | 0.0 | 0.0 | 0.00 | 0.02 | 0.00 | 92 | 1010.5 |
| 20260903053703 | 80 | 110 | 0.0 | 0.0 | 0.00 | 0.02 | 0.00 | 92 | 1010.5 |
| 20260903053203 | 80 | 110 | 0.0 | 0.0 | 0.00 | 0.02 | 0.00 | 92 | 1010.5 |
| 20260903053003 | 79 | 110 | 0.0 | 0.0 | 0.00 | 0.02 | 0.00 | 92 | 1010.6 |
| 20260903052702 | 80 | 110 | 0.0 | 0.0 | 0.00 | 0.02 | 0.00 | 92 | 1010.7 |
| 20260903052202 | 79 | 110 | 0.0 | 0.0 | 0.00 | 0.02 | 0.00 | 92 | 1010.7 |
| 20260903051706 | 79 | 110 | 0.0 | 0.0 | 0.00 | 0.02 | 0.00 | 91 | 1010.7 |
| 20260903051502 | 79 | 110 | 0.0 | 0.0 | 0.00 | 0.02 | 0.00 | 91 | 1010.8 |
| 20260903051445 | 80 | 110 | 0.0 | 0.0 | 0.00 | 0.02 | 0.00 | 91 | 1010.9 |
| 20260903050702 | 80 | 110 | 0.0 | 0.0 | 0.00 | 0.02 | 0.00 | 91 | 1010.9 |
| 20260903050447 | 80 | 110 | 0.0 | 0.0 | 0.00 | 0.02 | 0.00 | 91 | 1010.9 |
| 20260903050113 | 79 | 110 | 0.0 | 0.0 | 0.00 | 0.02 | 0.00 | 91 | 1010.8 |
| 20260903045701 | 80 | 110 | 0.0 | 0.0 | 0.00 | 0.02 | 0.00 | 91 | 1011.0 |
| 20260903045201 | 80 | 110 | 0.0 | 0.0 | 0.00 | 0.02 | 0.00 | 91 | 1011.0 |
| 20260903044948 | 80 | 110 | 0.0 | 0.0 | 0.00 | 0.02 | 0.00 | 92 | 1011.0 |
| 20260903044532 | 80 | 110 | 0.0 | 0.0 | 0.00 | 0.02 | 0.00 | 92 | 1011.1 |
| 20260903044203 | 80 | 110 | 0.0 | 0.0 | 0.00 | 0.02 | 0.00 | 91 | 1011.2 |
| 20260903043701 | 80 | 110 | 0.0 | 0.0 | 0.00 | 0.02 | 0.00 | 91 | 1011.2 |
| 20260903043201 | 80 | 110 | 0.0 | 0.0 | 0.00 | 0.02 | 0.00 | 91 | 1011.2 |
| 20260903043022 | 80 | 110 | 0.0 | 0.0 | 0.00 | 0.02 | 0.00 | 92 | 1011.3 |
| 20260903042702 | 80 | 110 | 0.0 | 0.0 | 0.00 | 0.02 | 0.00 | 92 | 1011.5 |
| 20260903042447 | 80 | 110 | 0.0 | 0.0 | 0.00 | 0.02 | 0.00 | 91 | 1011.5 |
| 20260903041703 | 80 | 110 | 0.0 | 0.0 | 0.00 | 0.02 | 0.00 | 91 | 1011.5 |
| 20260903041508 | 79 | 110 | 0.0 | 0.0 | 0.00 | 0.02 | 0.00 | 91 | 1011.4 |
| 20260903041203 | 80 | 110 | 0.0 | 0.0 | 0.00 | 0.02 | 0.00 | 91 | 1011.5 |
| 20260903040704 | 80 | 110 | 0.0 | 0.0 | 0.00 | 0.02 | 0.00 | 91 | 1011.5 |
| 20260903040201 | 80 | 110 | 0.0 | 0.0 | 0.00 | 0.02 | 0.00 | 91 | 1011.5 |
| 20260903040100 | 80 | 110 | 0.0 | 0.0 | 0.00 | 0.02 | 0.02 | 91 | 1011.5 |
| 20260903035946 | 80 | 110 | 0.0 | 0.0 | 0.00 | 0.02 | 0.02 | 91 | 1011.6 |
| 20260903035201 | 80 | 110 | 0.0 | 0.0 | 0.00 | 0.02 | 0.02 | 91 | 1011.6 |
| 20260903034701 | 80 | 110 | 0.0 | 0.0 | 0.00 | 0.02 | 0.02 | 90 | 1011.6 |
| 20260903034538 | 80 | 110 | 0.0 | 0.0 | 0.00 | 0.02 | 0.02 | 90 | 1011.8 |
| 20260903034454 | 80 | 110 | 0.0 | 0.0 | 0.00 | 0.02 | 0.02 | 90 | 1011.9 |
| 20260903033703 | 80 | 110 | 0.0 | 0.0 | 0.00 | 0.02 | 0.02 | 90 | 1011.9 |
| 20260903033202 | 80 | 110 | 0.0 | 0.0 | 0.00 | 0.02 | 0.02 | 90 | 1011.9 |
| 20260903033029 | 80 | 110 | 0.0 | 0.0 | 0.00 | 0.02 | 0.02 | 90 | 1011.7 |
| 20260903032701 | 80 | 110 | 0.0 | 0.0 | 0.00 | 0.02 | 0.02 | 90 | 1011.8 |
| 20260903032201 | 81 | 110 | 0.0 | 0.0 | 0.00 | 0.02 | 0.02 | 90 | 1011.8 |
| 20260903031950 | 81 | 110 | 0.0 | 0.0 | 0.00 | 0.02 | 0.02 | 90 | 1011.8 |
| 20260903031504 | 80 | 110 | 0.0 | 0.0 | 0.00 | 0.02 | 0.02 | 90 | 1011.5 |
| 20260903031203 | 81 | 110 | 0.0 | 0.0 | 0.00 | 0.02 | 0.02 | 90 | 1011.6 |
| 20260903030702 | 81 | 110 | 0.0 | 1.0 | 0.00 | 0.02 | 0.02 | 90 | 1011.6 |
| 20260903030203 | 81 | 110 | 0.0 | 1.0 | 0.00 | 0.02 | 0.02 | 90 | 1011.6 |
| 20260903030005 | 81 | 110 | 0.0 | 1.0 | 0.00 | 0.02 | 0.02 | 90 | 1011.4 |
| 20260903025703 | 81 | 110 | 0.0 | 2.0 | 0.00 | 0.02 | 0.02 | 90 | 1011.5 |
| 20260903025203 | 81 | 110 | 0.0 | 2.0 | 0.00 | 0.02 | 0.02 | 90 | 1011.5 |
| 20260903024704 | 81 | 109 | 1.0 | 2.0 | 0.00 | 0.02 | 0.02 | 90 | 1011.5 |
| 20260903024503 | 81 | 109 | 0.0 | 2.0 | 0.00 | 0.02 | 0.02 | 90 | 1011.3 |
| 20260903024203 | 81 | 92 | 1.0 | 2.0 | 0.00 | 0.02 | 0.02 | 89 | 1011.5 |
| 20260903023701 | 81 | 101 | 1.0 | 2.0 | 0.00 | 0.02 | 0.02 | 90 | 1011.5 |
| 20260903023202 | 81 | 92 | 1.0 | 2.0 | 0.00 | 0.02 | 0.02 | 89 | 1011.5 |
| 20260903023052 | 81 | 92 | 0.0 | 2.0 | 0.00 | 0.02 | 0.02 | 89 | 1011.3 |
| 20260903022702 | 81 | 96 | 1.0 | 2.0 | 0.00 | 0.02 | 0.02 | 89 | 1011.5 |
| 20260903022202 | 81 | 88 | 1.0 | 2.0 | 0.00 | 0.02 | 0.02 | 89 | 1011.5 |
| 20260903021702 | 81 | 92 | 0.0 | 2.0 | 0.00 | 0.02 | 0.02 | 89 | 1011.5 |
| 20260903021533 | 81 | 91 | 1.0 | 2.0 | 0.00 | 0.02 | 0.02 | 89 | 1011.4 |
| 20260903021201 | 81 | 92 | 0.0 | 1.0 | 0.00 | 0.02 | 0.02 | 89 | 1011.5 |
| 20260903020701 | 81 | 90 | 0.0 | 0.0 | 0.00 | 0.02 | 0.02 | 89 | 1011.5 |
| 20260903020201 | 81 | 90 | 0.0 | 1.0 | 0.00 | 0.02 | 0.02 | 89 | 1011.5 |
| 20260903020020 | 81 | 90 | 0.0 | 1.0 | 0.00 | 0.02 | 0.02 | 89 | 1011.4 |
| 20260903015701 | 81 | 90 | 0.0 | 1.0 | 0.00 | 0.02 | 0.02 | 89 | 1011.5 |
| 20260903015204 | 81 | 90 | 0.0 | 2.0 | 0.00 | 0.02 | 0.02 | 89 | 1011.5 |
| 20260903014702 | 81 | 84 | 1.0 | 2.0 | 0.00 | 0.02 | 0.02 | 89 | 1011.5 |
| 20260903014505 | 81 | 84 | 1.0 | 2.0 | 0.00 | 0.02 | 0.02 | 89 | 1011.3 |
| 20260903014205 | 82 | 99 | 0.0 | 1.0 | 0.00 | 0.02 | 0.02 | 89 | 1011.5 |
| 20260903013701 | 81 | 119 | 0.0 | 1.0 | 0.00 | 0.02 | 0.02 | 89 | 1011.5 |
| 20260903013200 | 81 | 119 | 0.0 | 1.0 | 0.00 | 0.02 | 0.02 | 89 | 1011.5 |
| 20260903013101 | 81 | 119 | 0.0 | 1.0 | 0.00 | 0.02 | 0.02 | 89 | 1011.1 |
| 20260903012702 | 82 | 119 | 0.0 | 1.0 | 0.00 | 0.02 | 0.02 | 89 | 1011.2 |
| 20260903012202 | 82 | 105 | 0.0 | 1.0 | 0.00 | 0.02 | 0.02 | 89 | 1011.2 |
| 20260903011702 | 82 | 105 | 0.0 | 1.0 | 0.00 | 0.02 | 0.02 | 88 | 1011.2 |
| 20260903011532 | 81 | 105 | 0.0 | 1.0 | 0.00 | 0.02 | 0.02 | 88 | 1010.9 |
| 20260903011201 | 82 | 105 | 0.0 | 1.0 | 0.00 | 0.02 | 0.02 | 88 | 1011.0 |
| 20260903010701 | 82 | 103 | 0.0 | 1.0 | 0.00 | 0.02 | 0.02 | 88 | 1011.0 |
| 20260903010538 | 82 | 90 | 1.0 | 2.0 | 0.00 | 0.02 | 0.02 | 88 | 1010.9 |
| 20260903010532 | 82 | 103 | 0.0 | 2.0 | 0.00 | 0.02 | 0.02 | 88 | 1011.0 |
| 20260903005203 | 82 | 106 | 1.0 | 2.0 | 0.00 | 0.02 | 0.02 | 88 | 1010.9 |
| 20260903004949 | 82 | 111 | 1.0 | 2.0 | 0.00 | 0.02 | 0.02 | 88 | 1010.9 |
| 20260903004503 | 81 | 113 | 0.0 | 2.0 | 0.00 | 0.02 | 0.02 | 88 | 1010.8 |
| 20260903004203 | 82 | 107 | 1.0 | 2.0 | 0.00 | 0.02 | 0.02 | 88 | 1010.9 |
| 20260903003702 | 82 | 93 | 1.0 | 3.0 | 0.00 | 0.02 | 0.02 | 88 | 1010.9 |
| 20260903003204 | 82 | 103 | 1.0 | 3.0 | 0.00 | 0.02 | 0.02 | 88 | 1010.9 |
| 20260903003006 | 81 | 92 | 1.0 | 3.0 | 0.00 | 0.02 | 0.02 | 88 | 1010.4 |
| 20260903002702 | 82 | 96 | 2.0 | 4.0 | 0.00 | 0.02 | 0.02 | 88 | 1010.5 |
| 20260903002202 | 82 | 74 | 2.0 | 4.0 | 0.00 | 0.02 | 0.02 | 88 | 1010.5 |
| 20260903001956 | 82 | 84 | 2.0 | 3.0 | 0.00 | 0.02 | 0.02 | 88 | 1010.5 |
| 20260903001505 | 81 | 102 | 2.0 | 3.0 | 0.00 | 0.02 | 0.02 | 88 | 1010.3 |
| 20260903001203 | 82 | 96 | 2.0 | 3.0 | 0.00 | 0.02 | 0.02 | 88 | 1010.5 |
| 20260903000702 | 82 | 96 | 2.0 | 3.0 | 0.00 | 0.02 | 0.02 | 88 | 1010.5 |
| 20260903000204 | 82 | 84 | 1.0 | 3.0 | 0.00 | 0.02 | 0.02 | 87 | 1010.5 |
| 20260903000004 | 81 | 87 | 1.0 | 3.0 | 0.00 | 0.02 | 0.02 | 87 | 1010.3 |
| 20260902235701 | 82 | 97 | 0.0 | 2.0 | 0.00 | 0.02 | 0.02 | 87 | 1010.4 |
| 20260902235202 | 82 | 92 | 1.0 | 2.0 | 0.00 | 0.02 | 0.02 | 87 | 1010.4 |
| 20260902234703 | 82 | 79 | 1.0 | 3.0 | 0.00 | 0.02 | 0.02 | 87 | 1010.4 |
| 20260902234504 | 82 | 80 | 1.0 | 3.0 | 0.00 | 0.02 | 0.02 | 87 | 1010.3 |
| 20260902234456 | 82 | 90 | 2.0 | 5.0 | 0.00 | 0.02 | 0.02 | 87 | 1010.4 |
| 20260902233702 | 82 | 87 | 3.0 | 6.0 | 0.00 | 0.02 | 0.02 | 87 | 1010.4 |
| 20260902233203 | 82 | 76 | 4.0 | 7.0 | 0.00 | 0.02 | 0.02 | 86 | 1010.4 |
| 20260902233007 | 82 | 119 | 4.0 | 7.0 | 0.00 | 0.02 | 0.02 | 86 | 1010.0 |
| 20260902232703 | 83 | 97 | 4.0 | 7.0 | 0.00 | 0.02 | 0.02 | 86 | 1010.1 |
| 20260902232203 | 83 | 103 | 3.0 | 7.0 | 0.00 | 0.02 | 0.02 | 87 | 1010.1 |
| 20260902231702 | 83 | 74 | 5.0 | 9.0 | 0.00 | 0.02 | 0.02 | 86 | 1010.1 |
| 20260902231508 | 82 | 79 | 3.0 | 9.0 | 0.00 | 0.02 | 0.02 | 86 | 1009.9 |
| 20260902231203 | 83 | 113 | 5.0 | 9.0 | 0.00 | 0.02 | 0.02 | 86 | 1010.0 |
| 20260902230703 | 83 | 113 | 4.0 | 8.0 | 0.00 | 0.02 | 0.02 | 85 | 1010.0 |
| 20260902230202 | 83 | 81 | 4.0 | 8.0 | 0.00 | 0.02 | 0.02 | 85 | 1010.0 |
| 20260902230003 | 83 | 78 | 4.0 | 8.0 | 0.00 | 0.02 | 0.02 | 84 | 1009.9 |
| 20260902225948 | 83 | 84 | 4.0 | 8.0 | 0.00 | 0.02 | 0.02 | 84 | 1010.0 |
| 20260902225451 | 84 | 129 | 4.0 | 9.0 | 0.00 | 0.02 | 0.02 | 85 | 1010.0 |
| 20260902224702 | 84 | 84 | 5.0 | 10.0 | 0.00 | 0.02 | 0.02 | 84 | 1010.0 |
| 20260902224505 | 83 | 113 | 5.0 | 10.0 | 0.00 | 0.02 | 0.02 | 84 | 1009.9 |
| 20260902224202 | 84 | 103 | 4.0 | 10.0 | 0.00 | 0.02 | 0.02 | 83 | 1010.0 |
| 20260902223703 | 84 | 72 | 4.0 | 8.0 | 0.00 | 0.02 | 0.02 | 83 | 1010.0 |
| 20260902223202 | 84 | 112 | 4.0 | 8.0 | 0.00 | 0.02 | 0.02 | 83 | 1010.0 |
| 20260902223008 | 83 | 97 | 5.0 | 8.0 | 0.00 | 0.02 | 0.02 | 83 | 1009.9 |
| 20260902222705 | 84 | 78 | 3.0 | 7.0 | 0.00 | 0.02 | 0.02 | 83 | 1010.0 |
| 20260902222203 | 84 | 75 | 3.0 | 7.0 | 0.00 | 0.02 | 0.02 | 83 | 1010.0 |
| 20260902221702 | 84 | 82 | 2.0 | 7.0 | 0.00 | 0.02 | 0.02 | 84 | 1010.0 |
| 20260902221505 | 83 | 98 | 2.0 | 6.0 | 0.00 | 0.02 | 0.02 | 84 | 1010.0 |
| 20260902221204 | 84 | 76 | 2.0 | 6.0 | 0.00 | 0.02 | 0.02 | 83 | 1010.1 |
| 20260902220945 | 84 | 76 | 2.0 | 6.0 | 0.00 | 0.02 | 0.02 | 84 | 1010.1 |
| 20260902220201 | 84 | 92 | 3.0 | 6.0 | 0.00 | 0.02 | 0.02 | 83 | 1010.1 |
| 20260902220003 | 83 | 67 | 2.0 | 5.0 | 0.00 | 0.02 | 0.02 | 83 | 1010.2 |
| 20260902215703 | 84 | 74 | 2.0 | 6.0 | 0.00 | 0.02 | 0.02 | 83 | 1010.3 |
| 20260902215203 | 84 | 77 | 3.0 | 8.0 | 0.00 | 0.02 | 0.02 | 84 | 1010.3 |
| 20260902214702 | 84 | 71 | 4.0 | 8.0 | 0.00 | 0.02 | 0.02 | 84 | 1010.3 |
| 20260902214506 | 84 | 85 | 4.0 | 8.0 | 0.00 | 0.02 | 0.02 | 84 | 1010.2 |
| 20260902214446 | 84 | 115 | 3.0 | 6.0 | 0.00 | 0.02 | 0.02 | 83 | 1010.4 |
| 20260902213949 | 85 | 105 | 4.0 | 6.0 | 0.00 | 0.02 | 0.02 | 84 | 1010.4 |
| 20260902213202 | 85 | 86 | 4.0 | 8.0 | 0.00 | 0.02 | 0.02 | 83 | 1010.4 |
| 20260902213005 | 84 | 78 | 4.0 | 8.0 | 0.00 | 0.02 | 0.02 | 83 | 1010.0 |
| 20260902212702 | 85 | 86 | 4.0 | 8.0 | 0.00 | 0.02 | 0.02 | 83 | 1010.1 |
| 20260902212202 | 85 | 75 | 4.0 | 8.0 | 0.00 | 0.02 | 0.02 | 82 | 1010.1 |
| 20260902211703 | 85 | 74 | 5.0 | 10.0 | 0.00 | 0.02 | 0.02 | 82 | 1010.1 |
| 20260902211502 | 85 | 80 | 3.0 | 10.0 | 0.00 | 0.02 | 0.02 | 83 | 1009.9 |
| 20260902211449 | 85 | 114 | 5.0 | 10.0 | 0.00 | 0.02 | 0.02 | 83 | 1010.0 |
| 20260902210703 | 85 | 97 | 4.0 | 10.0 | 0.00 | 0.02 | 0.02 | 83 | 1010.0 |
| 20260902210202 | 85 | 90 | 6.0 | 10.0 | 0.00 | 0.02 | 0.02 | 82 | 1010.0 |
| 20260902210005 | 85 | 96 | 4.0 | 10.0 | 0.00 | 0.02 | 0.02 | 83 | 1010.3 |
| 20260902205703 | 85 | 69 | 6.0 | 10.0 | 0.00 | 0.02 | 0.02 | 83 | 1010.4 |
| 20260902205204 | 85 | 96 | 6.0 | 9.0 | 0.00 | 0.02 | 0.02 | 83 | 1010.4 |
| 20260902204706 | 85 | 92 | 6.0 | 9.0 | 0.00 | 0.02 | 0.02 | 83 | 1010.4 |
| 20260902204503 | 85 | 116 | 5.0 | 9.0 | 0.00 | 0.02 | 0.02 | 84 | 1010.3 |
| 20260902204207 | 85 | 84 | 6.0 | 11.0 | 0.00 | 0.02 | 0.02 | 85 | 1010.5 |
| 20260902203702 | 85 | 103 | 6.0 | 11.0 | 0.00 | 0.02 | 0.02 | 85 | 1010.5 |
| 20260902203202 | 85 | 124 | 5.0 | 10.0 | 0.00 | 0.02 | 0.02 | 85 | 1010.5 |
| 20260902203031 | 85 | 110 | 5.0 | 10.0 | 0.00 | 0.02 | 0.02 | 84 | 1010.2 |
| 20260902202701 | 85 | 83 | 5.0 | 8.0 | 0.00 | 0.02 | 0.02 | 85 | 1010.3 |
| 20260902202201 | 85 | 74 | 5.0 | 10.0 | 0.00 | 0.02 | 0.02 | 84 | 1010.3 |
| 20260902201702 | 86 | 86 | 5.0 | 11.0 | 0.00 | 0.02 | 0.02 | 85 | 1010.3 |
| 20260902201535 | 85 | 118 | 5.0 | 10.0 | 0.00 | 0.02 | 0.02 | 85 | 1010.3 |
| 20260902201253 | 85 | 126 | 6.0 | 11.0 | 0.00 | 0.02 | 0.02 | 85 | 1010.4 |
| 20260902201237 | 86 | 134 | 5.0 | 11.0 | 0.00 | 0.02 | 0.02 | 85 | 1010.4 |
| 20260902200201 | 85 | 125 | 5.0 | 11.0 | 0.00 | 0.02 | 0.02 | 85 | 1010.4 |
| 20260902200033 | 85 | 123 | 6.0 | 11.0 | 0.00 | 0.02 | 0.02 | 85 | 1010.4 |
| 20260902195701 | 85 | 119 | 5.0 | 10.0 | 0.00 | 0.02 | 0.02 | 85 | 1010.5 |
| 20260902195202 | 85 | 111 | 6.0 | 9.0 | 0.00 | 0.02 | 0.02 | 85 | 1010.5 |
| 20260902194954 | 85 | 104 | 6.0 | 11.0 | 0.00 | 0.02 | 0.02 | 85 | 1010.5 |
| 20260902194536 | 85 | 123 | 4.0 | 11.0 | 0.00 | 0.02 | 0.02 | 85 | 1010.5 |
| 20260902194201 | 85 | 98 | 6.0 | 11.0 | 0.00 | 0.02 | 0.02 | 85 | 1010.7 |
| 20260902193701 | 85 | 92 | 5.0 | 9.0 | 0.00 | 0.02 | 0.02 | 84 | 1010.7 |
| 20260902193203 | 86 | 74 | 5.0 | 9.0 | 0.00 | 0.02 | 0.02 | 84 | 1010.7 |
| 20260902193007 | 85 | 104 | 5.0 | 9.0 | 0.00 | 0.02 | 0.02 | 84 | 1010.8 |
| 20260902192947 | 85 | 131 | 5.0 | 9.0 | 0.00 | 0.02 | 0.02 | 84 | 1011.0 |
| 20260902192201 | 85 | 113 | 4.0 | 8.0 | 0.00 | 0.02 | 0.02 | 83 | 1011.0 |
| 20260902191702 | 86 | 105 | 4.0 | 9.0 | 0.00 | 0.02 | 0.02 | 84 | 1011.0 |
| 20260902191536 | 85 | 88 | 3.0 | 9.0 | 0.00 | 0.02 | 0.02 | 84 | 1010.9 |
| 20260902191201 | 85 | 92 | 5.0 | 9.0 | 0.00 | 0.02 | 0.02 | 84 | 1011.0 |
| 20260902190701 | 85 | 101 | 4.0 | 9.0 | 0.00 | 0.02 | 0.02 | 83 | 1011.0 |
| 20260902190201 | 85 | 126 | 4.0 | 9.0 | 0.00 | 0.02 | 0.02 | 84 | 1011.0 |
| 20260902190030 | 85 | 103 | 3.0 | 9.0 | 0.00 | 0.02 | 0.02 | 84 | 1011.0 |
| 20260902185959 | 85 | 67 | 4.0 | 8.0 | 0.00 | 0.02 | 0.02 | 84 | 1011.1 |
| 20260902185203 | 85 | 95 | 4.0 | 8.0 | 0.00 | 0.02 | 0.02 | 85 | 1011.1 |
| 20260902184702 | 85 | 111 | 4.0 | 8.0 | 0.00 | 0.02 | 0.02 | 85 | 1011.1 |
| 20260902184508 | 84 | 84 | 3.0 | 8.0 | 0.00 | 0.02 | 0.02 | 85 | 1011.3 |
| 20260902184202 | 84 | 98 | 5.0 | 9.0 | 0.00 | 0.02 | 0.02 | 85 | 1011.4 |
| 20260902183657 | 84 | 86 | 5.0 | 9.0 | 0.00 | 0.02 | 0.02 | 85 | 1011.4 |
| 20260902183155 | 84 | 123 | 5.0 | 8.0 | 0.00 | 0.02 | 0.02 | 86 | 1011.4 |
| 20260902183007 | 84 | 75 | 4.0 | 8.0 | 0.00 | 0.02 | 0.02 | 86 | 1011.4 |
| 20260902182655 | 84 | 101 | 4.0 | 8.0 | 0.00 | 0.02 | 0.02 | 86 | 1011.5 |
| 20260902182152 | 84 | 99 | 4.0 | 8.0 | 0.00 | 0.02 | 0.02 | 87 | 1011.5 |
| 20260902181653 | 83 | 111 | 4.0 | 9.0 | 0.00 | 0.02 | 0.02 | 86 | 1011.5 |
| 20260902181505 | 83 | 103 | 3.0 | 8.0 | 0.00 | 0.02 | 0.02 | 86 | 1011.4 |
| 20260902181152 | 83 | 115 | 5.0 | 9.0 | 0.00 | 0.02 | 0.02 | 86 | 1011.5 |
| 20260902180652 | 84 | 119 | 5.0 | 9.0 | 0.00 | 0.02 | 0.02 | 86 | 1011.5 |
| 20260902180150 | 84 | 118 | 3.0 | 9.0 | 0.00 | 0.02 | 0.02 | 87 | 1011.5 |
| 20260902180104 | 83 | 96 | 5.0 | 9.0 | 0.00 | 0.02 | 0.02 | 86 | 1011.4 |
| 20260902175650 | 84 | 74 | 2.0 | 7.0 | 0.00 | 0.02 | 0.02 | 87 | 1011.5 |
| 20260902175443 | 84 | 81 | 3.0 | 8.0 | 0.00 | 0.02 | 0.02 | 87 | 1011.5 |
| 20260902174648 | 84 | 92 | 3.0 | 8.0 | 0.00 | 0.02 | 0.02 | 86 | 1011.5 |
| 20260902174545 | 83 | 78 | 2.0 | 8.0 | 0.00 | 0.02 | 0.02 | 86 | 1011.7 |
| 20260902174448 | 84 | 86 | 3.0 | 6.0 | 0.00 | 0.02 | 0.02 | 86 | 1011.8 |
| 20260902173648 | 84 | 65 | 4.0 | 7.0 | 0.00 | 0.02 | 0.02 | 86 | 1011.8 |
| 20260902173237 | 84 | 103 | 4.0 | 7.0 | 0.00 | 0.02 | 0.02 | 86 | 1012.0 |
| 20260902173219 | 84 | 98 | 4.0 | 7.0 | 0.00 | 0.02 | 0.02 | 86 | 1012.0 |
| 20260902172137 | 84 | 109 | 4.0 | 7.0 | 0.00 | 0.02 | 0.02 | 85 | 1012.0 |
| 20260902171634 | 84 | 119 | 3.0 | 6.0 | 0.00 | 0.02 | 0.02 | 85 | 1012.0 |
| 20260902171507 | 84 | 92 | 4.0 | 5.0 | 0.00 | 0.02 | 0.02 | 85 | 1011.9 |
| 20260902171135 | 85 | 94 | 2.0 | 6.0 | 0.00 | 0.02 | 0.02 | 85 | 1012.0 |
| 20260902170632 | 85 | 66 | 2.0 | 6.0 | 0.00 | 0.02 | 0.02 | 85 | 1012.0 |
| 20260902170427 | 85 | 79 | 2.0 | 6.0 | 0.00 | 0.02 | 0.02 | 85 | 1012.1 |
| 20260902170006 | 84 | 92 | 1.0 | 4.0 | 0.00 | 0.02 | 0.02 | 85 | 1012.0 |